TimeEDT,TemperatureF,Dew PointF,Humidity,Sea Level PressureIn,VisibilityMPH,Wind Direction,Wind SpeedMPH,Gust SpeedMPH,PrecipitationIn,Events,Conditions,WindDirDegrees,DateUTC
12:24 AM,66.2,66.2,100,30.04,10.0,NW,3.5,-,N/A,,Scattered Clouds,310,2012-10-05 04:24:00
12:52 AM,66.9,64.9,93,30.04,7.0,Calm,Calm,-,N/A,,Mostly Cloudy,0,2012-10-05 04:52:00
1:52 AM,64.9,64.0,97,30.05,10.0,Calm,Calm,-,N/A,,Scattered Clouds,0,2012-10-05 05:52:00
2:10 AM,64.4,64.4,100,30.04,5.0,Calm,Calm,-,N/A,,Mostly Cloudy,0,2012-10-05 06:10:00
2:31 AM,64.4,64.4,100,30.04,2.5,Calm,Calm,-,N/A,,Overcast,0,2012-10-05 06:31:00
2:39 AM,64.4,64.4,100,30.04,4.0,Calm,Calm,-,N/A,,Overcast,0,2012-10-05 06:39:00
2:52 AM,64.9,64.0,97,30.04,3.0,NW,3.5,-,N/A,,Overcast,320,2012-10-05 06:52:00
3:06 AM,64.4,64.4,100,30.03,1.8,NW,3.5,-,N/A,,Overcast,310,2012-10-05 07:06:00
3:11 AM,64.4,64.4,100,30.03,0.5,Calm,Calm,-,N/A,Fog,Fog,0,2012-10-05 07:11:00
3:52 AM,64.4,64.4,100,30.03,0.5,West,4.6,-,N/A,Fog,Fog,260,2012-10-05 07:52:00
4:52 AM,63.0,63.0,100,30.04,0.5,Calm,Calm,-,N/A,Fog,Fog,0,2012-10-05 08:52:00
5:16 AM,62.6,62.6,100,30.04,1.0,West,4.6,-,N/A,,Mist,260,2012-10-05 09:16:00
5:52 AM,63.0,63.0,100,30.04,0.8,WNW,4.6,-,N/A,,Mist,300,2012-10-05 09:52:00
6:17 AM,62.6,62.6,100,30.05,2.0,West,3.5,-,N/A,,Overcast,280,2012-10-05 10:17:00
6:25 AM,62.6,62.6,100,30.05,6.0,WNW,3.5,-,N/A,,Overcast,290,2012-10-05 10:25:00
6:39 AM,62.6,60.8,94,30.05,6.0,WNW,4.6,-,N/A,,Overcast,300,2012-10-05 10:39:00
6:52 AM,62.1,62.1,100,30.06,6.0,NW,4.6,-,N/A,,Overcast,320,2012-10-05 10:52:00
7:52 AM,61.0,60.1,97,30.06,6.0,NNW,6.9,-,N/A,,Overcast,330,2012-10-05 11:52:00
8:52 AM,64.0,61.0,90,30.06,7.0,Calm,Calm,-,N/A,,Overcast,0,2012-10-05 12:52:00
9:13 AM,64.4,62.6,94,30.06,8.0,Calm,Calm,-,N/A,,Mostly Cloudy,0,2012-10-05 13:13:00
9:39 AM,66.2,62.6,88,30.06,9.0,Calm,Calm,-,N/A,,Scattered Clouds,0,2012-10-05 13:39:00
9:52 AM,66.9,62.1,84,30.06,10.0,Calm,Calm,-,N/A,,Partly Cloudy,0,2012-10-05 13:52:00
10:52 AM,68.0,62.6,83,30.05,8.0,SW,6.9,-,N/A,,Clear,220,2012-10-05 14:52:00
11:52 AM,69.8,62.6,78,30.04,10.0,SSW,9.2,-,N/A,,Clear,210,2012-10-05 15:52:00
12:52 PM,72.0,64.0,76,30.02,10.0,SSW,10.4,-,N/A,,Clear,210,2012-10-05 16:52:00
1:52 PM,73.0,62.1,68,29.99,10.0,SW,12.7,-,N/A,,Clear,220,2012-10-05 17:52:00
2:52 PM,73.9,61.0,64,29.97,10.0,SSW,12.7,-,N/A,,Clear,210,2012-10-05 18:52:00
3:52 PM,75.9,59.0,56,29.96,10.0,SW,10.4,-,N/A,,Clear,220,2012-10-05 19:52:00
4:52 PM,75.0,57.9,55,29.96,10.0,SSW,8.1,-,N/A,,Clear,200,2012-10-05 20:52:00
5:52 PM,73.9,59.0,59,29.96,10.0,SSW,6.9,-,N/A,,Clear,210,2012-10-05 21:52:00
6:52 PM,72.0,57.9,61,29.96,10.0,SSW,3.5,-,N/A,,Clear,200,2012-10-05 22:52:00
7:52 PM,71.1,61.0,70,29.96,10.0,South,6.9,-,N/A,,Clear,190,2012-10-05 23:52:00
8:52 PM,70.0,62.1,76,29.96,10.0,SSW,6.9,-,N/A,,Clear,210,2012-10-06 00:52:00
9:52 PM,70.0,62.1,76,29.95,10.0,SW,6.9,-,N/A,,Clear,230,2012-10-06 01:52:00
10:52 PM,66.9,62.1,84,29.94,9.0,SW,3.5,-,N/A,,Clear,230,2012-10-06 02:52:00
11:52 PM,66.0,62.1,87,29.93,8.0,Calm,Calm,-,N/A,,Clear,0,2012-10-06 03:52:00